User: anonymous   Login
Location: Grossmotten
(48.5500°N, 15.3833°E)
Time: 11:51:55
(UTC+00:00)
Language:

COSMOS 2455 - Orbit

View from above orbital plane
View from above orbital plane
View from above satellite
View from above satellite

Ground track
Ground track

The orbit data is extracted from the following two-line orbital elements,

1 36095U 09063A   20022.54988627 -.00000073 +00000-0 +15848-5 0  9998
2 36095 067.1469 176.2304 0003044 266.6631 093.4106 13.96762354518791
Epoch (UTC): 22 January 2020 13:11:50
Eccentricity: 0.0003044
inclination: 67.1469°
perigee height: 903 km
apogee height: 907 km
right ascension of ascending node: 176.2304°
argument of perigee: 266.6631°
revolutions per day: 13.96762354
mean anomaly at epoch: 93.4106°
orbit number at epoch: 51879

The dashed part of the orbit path shows where the satellite is in the earth's shadow,  

DLR